| time (UTC) | temp F | wind direction | speed MPH | gust MPH | rain 1hr in | rain 24hr in | rain mn in | humidity % | barometer mb |
| 20260509023014 | 80 | 121 | 1.0 | 8.0 | 0.00 | 0.00 | 0.00 | 55 | 1013.6 |
| 20260509021514 | 81 | 154 | 0.0 | 8.0 | 0.00 | 0.00 | 0.00 | 53 | 1013.6 |
| 20260509020013 | 83 | 221 | 3.0 | 9.0 | 0.00 | 0.00 | 0.00 | 51 | 1013.6 |
| 20260509014513 | 85 | 196 | 3.0 | 9.0 | 0.00 | 0.00 | 0.00 | 48 | 1013.7 |
| 20260509013010 | 86 | 263 | 1.0 | 9.0 | 0.00 | 0.00 | 0.00 | 47 | 1013.8 |
| 20260509011511 | 87 | 228 | 3.0 | 7.0 | 0.00 | 0.00 | 0.00 | 44 | 1013.8 |
| 20260509010009 | 88 | 298 | 3.0 | 7.0 | 0.00 | 0.00 | 0.00 | 42 | 1013.9 |
| 20260509004520 | 88 | 140 | 1.0 | 8.0 | 0.00 | 0.00 | 0.00 | 43 | 1013.9 |
| 20260509003007 | 89 | 256 | 2.0 | 7.0 | 0.00 | 0.00 | 0.00 | 40 | 1014.2 |
| 20260509001504 | 90 | 162 | 1.0 | 6.0 | 0.00 | 0.00 | 0.00 | 38 | 1014.3 |
| 20260509000003 | 90 | 284 | 0.0 | 5.0 | 0.00 | 0.00 | 0.00 | 37 | 1014.4 |
| 20260508234503 | 90 | 306 | 0.0 | 5.0 | 0.00 | 0.00 | 0.00 | 36 | 1014.4 |
| 20260508233108 | 90 | 355 | 0.0 | 3.0 | 0.00 | 0.00 | 0.00 | 38 | 1014.6 |
| 20260508231634 | 90 | 219 | 1.0 | 8.0 | 0.00 | 0.00 | 0.00 | 38 | 1014.7 |
| 20260508224600 | 89 | 228 | 2.0 | 7.0 | 0.00 | 0.00 | 0.00 | 40 | 1015.1 |
| 20260508223050 | 88 | 248 | 1.0 | 4.0 | 0.00 | 0.00 | 0.00 | 40 | 1015.4 |
| 20260508221547 | 88 | 355 | 0.0 | 6.0 | 0.00 | 0.00 | 0.00 | 41 | 1015.7 |
| 20260508220044 | 87 | 109 | 2.0 | 6.0 | 0.00 | 0.00 | 0.00 | 44 | 1016.0 |
| 20260508214605 | 87 | 308 | 0.0 | 5.0 | 0.00 | 0.00 | 0.00 | 44 | 1016.3 |
| 20260508213047 | 86 | 313 | 0.0 | 3.0 | 0.00 | 0.00 | 0.00 | 44 | 1016.4 |
| 20260508211541 | 85 | 97 | 0.0 | 3.0 | 0.00 | 0.00 | 0.00 | 44 | 1016.7 |
| 20260508210035 | 84 | 254 | 1.0 | 5.0 | 0.00 | 0.00 | 0.00 | 45 | 1016.9 |
| 20260508204533 | 84 | 297 | 0.0 | 4.0 | 0.00 | 0.00 | 0.00 | 46 | 1016.9 |
| 20260508203028 | 82 | 178 | 0.0 | 6.0 | 0.00 | 0.00 | 0.00 | 47 | 1017.2 |
| 20260508201525 | 82 | 304 | 0.0 | 4.0 | 0.00 | 0.00 | 0.00 | 47 | 1017.3 |
| 20260508200021 | 81 | 39 | 0.0 | 3.0 | 0.00 | 0.00 | 0.00 | 49 | 1017.4 |
| 20260508194519 | 80 | 310 | 0.0 | 4.0 | 0.00 | 0.00 | 0.00 | 50 | 1017.5 |
| 20260508193016 | 78 | 265 | 1.0 | 6.0 | 0.00 | 0.00 | 0.00 | 53 | 1017.8 |
| 20260508191529 | 77 | 231 | 1.0 | 5.0 | 0.00 | 0.00 | 0.00 | 52 | 1017.9 |
| 20260508190009 | 76 | 109 | 1.0 | 5.0 | 0.00 | 0.00 | 0.00 | 54 | 1018.1 |
| 20260508184506 | 75 | 158 | 2.0 | 4.0 | 0.00 | 0.00 | 0.00 | 57 | 1018.2 |
| 20260508183004 | 73 | 128 | 2.0 | 6.0 | 0.00 | 0.00 | 0.00 | 58 | 1018.4 |
| 20260508181558 | 72 | 221 | 2.0 | 5.0 | 0.00 | 0.00 | 0.00 | 60 | 1018.3 |
| 20260508180110 | 70 | 92 | 2.0 | 8.0 | 0.00 | 0.00 | 0.00 | 63 | 1018.3 |
| 20260508174559 | 69 | 240 | 2.0 | 5.0 | 0.00 | 0.00 | 0.00 | 63 | 1018.6 |
| 20260508173046 | 68 | 115 | 2.0 | 8.0 | 0.00 | 0.00 | 0.00 | 66 | 1018.4 |
| 20260508171543 | 67 | 147 | 3.0 | 7.0 | 0.00 | 0.00 | 0.00 | 68 | 1018.5 |
| 20260508170041 | 65 | 136 | 2.0 | 5.0 | 0.00 | 0.00 | 0.00 | 70 | 1018.5 |
| 20260508164535 | 64 | 131 | 3.0 | 7.0 | 0.00 | 0.00 | 0.00 | 72 | 1018.5 |
| 20260508163036 | 62 | 198 | 1.0 | 6.0 | 0.00 | 0.00 | 0.00 | 75 | 1018.6 |
| 20260508161532 | 61 | 130 | 2.0 | 7.0 | 0.00 | 0.00 | 0.00 | 76 | 1018.6 |
| 20260508160026 | 60 | 126 | 3.0 | 8.0 | 0.00 | 0.00 | 0.00 | 79 | 1018.6 |
| 20260508154524 | 58 | 111 | 3.0 | 8.0 | 0.00 | 0.00 | 0.00 | 80 | 1018.7 |
| 20260508153022 | 58 | 137 | 4.0 | 11.0 | 0.00 | 0.00 | 0.00 | 81 | 1018.6 |
| 20260508151520 | 57 | 134 | 3.0 | 7.0 | 0.00 | 0.00 | 0.00 | 81 | 1018.5 |
| 20260508150022 | 57 | 141 | 2.0 | 9.0 | 0.00 | 0.00 | 0.00 | 83 | 1018.4 |
| 20260508144517 | 56 | 145 | 2.0 | 6.0 | 0.00 | 0.00 | 0.00 | 84 | 1018.5 |
| 20260508143015 | 55 | 149 | 1.0 | 5.0 | 0.00 | 0.00 | 0.00 | 85 | 1018.3 |
| 20260508141511 | 54 | 143 | 1.0 | 8.0 | 0.00 | 0.00 | 0.00 | 87 | 1017.8 |
| 20260508140009 | 54 | 157 | 1.0 | 6.0 | 0.00 | 0.00 | 0.00 | 87 | 1017.8 |
| 20260508134511 | 53 | 136 | 3.0 | 8.0 | 0.00 | 0.00 | 0.00 | 88 | 1017.6 |
| 20260508133006 | 53 | 123 | 1.0 | 7.0 | 0.00 | 0.00 | 0.00 | 87 | 1017.5 |
| 20260508131503 | 53 | 123 | 1.0 | 5.0 | 0.00 | 0.00 | 0.00 | 87 | 1017.4 |
| 20260508130002 | 54 | 106 | 1.0 | 5.0 | 0.00 | 0.00 | 0.00 | 87 | 1017.3 |
| 20260508124559 | 54 | 174 | 3.0 | 8.0 | 0.00 | 0.00 | 0.00 | 86 | 1017.4 |
| 20260508123057 | 54 | 148 | 1.0 | 7.0 | 0.00 | 0.00 | 0.00 | 87 | 1017.3 |
| 20260508121557 | 54 | 146 | 2.0 | 7.0 | 0.00 | 0.00 | 0.00 | 87 | 1017.2 |
| 20260508120055 | 55 | 136 | 2.0 | 7.0 | 0.00 | 0.00 | 0.00 | 87 | 1017.2 |
| 20260508114652 | 55 | 171 | 2.0 | 9.0 | 0.00 | 0.00 | 0.00 | 87 | 1017.1 |
| 20260508113053 | 55 | 142 | 2.0 | 8.0 | 0.00 | 0.00 | 0.00 | 87 | 1016.9 |
| 20260508111559 | 55 | 142 | 3.0 | 10.0 | 0.00 | 0.00 | 0.00 | 86 | 1017.0 |
| 20260508110045 | 55 | 120 | 2.0 | 8.0 | 0.00 | 0.00 | 0.00 | 86 | 1017.0 |
| 20260508104543 | 55 | 146 | 2.0 | 9.0 | 0.00 | 0.00 | 0.00 | 86 | 1016.9 |
| 20260508103042 | 56 | 130 | 2.0 | 7.0 | 0.00 | 0.00 | 0.00 | 86 | 1016.9 |
| 20260508101540 | 56 | 142 | 3.0 | 7.0 | 0.00 | 0.00 | 0.00 | 86 | 1016.8 |
| 20260508100039 | 56 | 131 | 1.0 | 8.0 | 0.00 | 0.00 | 0.00 | 85 | 1016.9 |
| 20260508094537 | 56 | 133 | 4.0 | 8.0 | 0.00 | 0.00 | 0.00 | 84 | 1016.8 |
| 20260508093036 | 56 | 157 | 3.0 | 9.0 | 0.00 | 0.00 | 0.00 | 84 | 1016.7 |
| 20260508091538 | 56 | 147 | 2.0 | 8.0 | 0.00 | 0.00 | 0.00 | 84 | 1016.8 |
| 20260508090031 | 57 | 170 | 1.0 | 5.0 | 0.00 | 0.00 | 0.00 | 83 | 1016.6 |
| 20260508084531 | 57 | 131 | 1.0 | 7.0 | 0.00 | 0.00 | 0.00 | 83 | 1016.6 |
| 20260508083028 | 57 | 184 | 2.0 | 8.0 | 0.00 | 0.00 | 0.00 | 82 | 1016.7 |
| 20260508081529 | 58 | 128 | 3.0 | 7.0 | 0.00 | 0.00 | 0.00 | 82 | 1016.8 |
| 20260508080024 | 58 | 153 | 2.0 | 6.0 | 0.00 | 0.00 | 0.00 | 82 | 1016.8 |
| 20260508074525 | 59 | 157 | 2.0 | 5.0 | 0.00 | 0.00 | 0.00 | 81 | 1016.5 |
| 20260508073023 | 59 | 159 | 3.0 | 7.0 | 0.00 | 0.00 | 0.00 | 80 | 1016.5 |
| 20260508071516 | 60 | 135 | 3.0 | 8.0 | 0.00 | 0.00 | 0.00 | 79 | 1016.5 |
| 20260508070013 | 61 | 119 | 3.0 | 9.0 | 0.00 | 0.00 | 0.00 | 78 | 1016.3 |
| 20260508064519 | 61 | 132 | 2.0 | 8.0 | 0.00 | 0.00 | 0.00 | 77 | 1016.3 |
| 20260508063012 | 62 | 114 | 1.0 | 5.0 | 0.00 | 0.00 | 0.00 | 77 | 1016.3 |
| 20260508061512 | 62 | 157 | 1.0 | 4.0 | 0.00 | 0.00 | 0.00 | 76 | 1016.1 |
| 20260508060011 | 63 | 113 | 2.0 | 7.0 | 0.00 | 0.00 | 0.00 | 76 | 1016.0 |
| 20260508054512 | 63 | 150 | 1.0 | 5.0 | 0.00 | 0.00 | 0.00 | 75 | 1016.1 |
| 20260508053011 | 64 | 170 | 1.0 | 6.0 | 0.00 | 0.00 | 0.00 | 74 | 1016.1 |
| 20260508051518 | 65 | 144 | 3.0 | 5.0 | 0.00 | 0.00 | 0.00 | 73 | 1016.1 |
| 20260508050011 | 65 | 163 | 3.0 | 7.0 | 0.00 | 0.00 | 0.00 | 72 | 1016.0 |
| 20260508044508 | 66 | 216 | 2.0 | 5.0 | 0.00 | 0.00 | 0.00 | 71 | 1015.9 |
| 20260508043014 | 67 | 200 | 1.0 | 7.0 | 0.00 | 0.00 | 0.00 | 70 | 1015.8 |
| 20260508041509 | 68 | 172 | 3.0 | 8.0 | 0.00 | 0.00 | 0.00 | 69 | 1015.6 |
| 20260508040006 | 70 | 16 | 3.0 | 10.0 | 0.00 | 0.00 | 0.00 | 67 | 1015.5 |
| 20260508034507 | 71 | 21 | 1.0 | 8.0 | 0.00 | 0.00 | 0.00 | 65 | 1015.3 |
| 20260508033005 | 73 | 163 | 1.0 | 7.0 | 0.00 | 0.00 | 0.00 | 64 | 1015.1 |
| 20260508031504 | 75 | 180 | 1.0 | 7.0 | 0.00 | 0.00 | 0.00 | 63 | 1015.1 |
| 20260508030003 | 76 | 132 | 3.0 | 6.0 | 0.00 | 0.00 | 0.00 | 61 | 1014.9 |
| 20260508024502 | 78 | 173 | 3.0 | 9.0 | 0.00 | 0.00 | 0.00 | 58 | 1014.8 |